FW1194 Weather Reports


time (UTC)temp
C
wind
direction
speed
KPH
gust
KPH
rain 1hr
cm
rain 24hr
cm
rain mn
cm
humidity
%
barometer
mb
20260508105216 3 0.0 1.6 0.00 0.13 0.00 90 1009.6
20260508104217 2 0.0 0.0 0.00 0.13 0.00 90 1009.5
20260508103237 2 0.0 0.0 0.00 0.13 0.00 90 1009.4
20260508102217 2 0.0 0.0 0.00 0.13 0.00 89 1009.4
20260508101237 3 0.0 1.6 0.00 0.13 0.00 89 1009.4
20260508100237 3 0 1.6 3.2 0.00 0.13 0.00 89 1009.4
20260508095216 3 338 1.6 1.6 0.00 0.13 0.00 89 1009.5
20260508094217 3 0.0 0.0 0.00 0.13 0.00 89 1009.6
20260508093217 3 0.0 1.6 0.00 0.13 0.00 89 1009.6
20260508092237 3 0.0 0.0 0.00 0.13 0.00 89 1009.5
20260508091217 3 0.0 0.0 0.00 0.13 0.00 88 1009.8
20260508090216 3 0.0 0.0 0.00 0.13 0.00 88 1009.8
20260508085237 3 0.0 0.0 0.00 0.13 0.00 88 1009.9
20260508084216 3 0.0 0.0 0.00 0.13 0.00 88 1010.0
20260508083216 3 0.0 0.0 0.00 0.13 0.00 88 1010.1
20260508082216 3 0.0 0.0 0.00 0.13 0.00 88 1010.1
20260508081216 3 0.0 0.0 0.00 0.13 0.00 88 1010.2
20260508080216 4 0.0 0.0 0.00 0.13 0.00 88 1010.2
20260508075216 4 0.0 0.0 0.00 0.13 0.00 88 1010.3
20260508074216 4 0.0 0.0 0.00 0.13 0.00 88 1010.4
20260508073216 4 0.0 0.0 0.00 0.13 0.00 87 1010.5
20260508072217 4 338 1.6 4.8 0.00 0.13 0.00 87 1010.5
20260508071216 5 0.0 1.6 0.00 0.13 0.00 87 1010.6
20260508070216 5 0.0 1.6 0.00 0.13 0.00 86 1010.7
20260508065216 4 0.0 0.0 0.00 0.13 0.00 86 1010.7
20260508064216 4 315 3.2 3.2 0.00 0.13 0.00 85 1010.5
20260508063236 5 0.0 0.0 0.00 0.13 0.00 85 1010.5
20260508062216 5 0.0 0.0 0.00 0.13 0.00 85 1010.6
20260508061236 5 0.0 0.0 0.00 0.13 0.00 84 1010.6
20260508060216 5 0.0 0.0 0.00 0.13 0.00 84 1010.6
20260508055216 5 0.0 0.0 0.00 0.13 0.00 83 1010.4
20260508054216 5 0.0 0.0 0.00 0.13 0.00 83 1010.5
20260508053236 5 0.0 0.0 0.00 0.13 0.00 82 1010.4
20260508052216 5 0.0 0.0 0.00 0.13 0.00 82 1010.4
20260508051217 6 0.0 0.0 0.00 0.13 0.00 81 1010.2
20260508050216 6 189 1.6 0.0 0.00 0.13 0.00 80 1010.2
20260508045217 6 0.0 0.0 0.00 0.13 0.13 80 1010.2
20260508044216 6 0.0 1.6 0.00 0.13 0.13 79 1010.1
20260508043217 6 0.0 0.0 0.00 0.13 0.13 78 1010.0
20260508042217 7 0.0 0.0 0.00 0.13 0.13 78 1009.9
20260508041237 7 0.0 1.6 0.00 0.13 0.13 77 1009.9
20260508040217 7 0.0 0.0 0.00 0.13 0.13 76 1009.8
20260508035217 7 0.0 0.0 0.00 0.13 0.13 76 1009.8
20260508034217 7 293 3.2 4.8 0.00 0.13 0.13 74 1009.7
20260508033217 7 0.0 0.0 0.00 0.13 0.13 73 1009.6
20260508032217 8 158 1.6 3.2 0.00 0.13 0.13 72 1009.6
20260508031217 8 0.0 0.0 0.00 0.13 0.13 72 1009.6
20260508030217 8 68 1.6 3.2 0.00 0.13 0.13 71 1009.5
20260508025217 8 0.0 1.6 0.00 0.13 0.13 71 1009.5
20260508024216 8 68 1.6 3.2 0.00 0.13 0.13 69 1009.4
20260508023217 9 68 3.2 3.2 0.00 0.13 0.13 68 1009.2
20260508022216 9 0.0 1.6 0.00 0.13 0.13 68 1009.2
20260508021237 10 90 1.6 1.6 0.00 0.13 0.13 65 1009.0
20260508020217 10 0.0 3.2 0.00 0.13 0.13 64 1008.9
20260508015217 11 180 1.6 1.6 0.00 0.13 0.13 63 1008.9
20260508014216 11 0.0 0.0 0.00 0.13 0.13 60 1008.6
20260508013216 12 0.0 1.6 0.00 0.13 0.13 58 1008.5
20260508012217 12 0.0 0.0 0.00 0.13 0.13 57 1008.5
20260508011216 12 180 1.6 1.6 0.00 0.13 0.13 54 1008.3
20260508010237 13 0.0 0.0 0.00 0.13 0.13 52 1008.3
20260508005217 13 203 1.6 1.6 0.00 0.13 0.13 51 1008.2
20260508004217 13 225 3.2 4.8 0.00 0.13 0.13 50 1008.1
20260508003216 14 248 4.8 6.4 0.00 0.13 0.13 49 1008.1
20260508002217 14 270 6.4 11.3 0.00 0.13 0.13 48 1008.2
20260508001216 15 270 9.7 16.1 0.00 0.13 0.13 47 1008.0
20260508000216 15 270 12.9 17.7 0.00 0.13 0.13 47 1007.9
20260507235216 15 225 12.9 17.7 0.00 0.13 0.13 47 1007.9
20260507234216 15 225 12.9 17.7 0.00 0.13 0.13 47 1008.0
20260507233216 15 225 6.4 9.7 0.00 0.13 0.13 48 1008.0
20260507232216 15 270 11.3 14.5 0.00 0.13 0.13 47 1008.0
20260507231216 15 225 9.7 16.1 0.00 0.13 0.13 47 1008.0
20260507230216 15 248 11.3 16.1 0.00 0.13 0.13 50 1008.1
20260507225216 15 203 12.9 16.1 0.00 0.13 0.13 58 1008.3
20260507224217 14 248 12.9 19.3 0.00 0.13 0.13 60 1008.4
20260507223217 13 203 8.0 12.9 0.03 0.13 0.13 67 1008.4
20260507222216 13 225 12.9 19.3 0.03 0.13 0.13 65 1008.7
20260507221216 12 203 6.4 8.0 0.03 0.13 0.13 69 1008.5
20260507220216 11 225 4.8 6.4 0.08 0.13 0.13 73 1008.6
20260507215216 10 135 4.8 8.0 0.13 0.13 0.13 72 1008.6
20260507214216 10 270 14.5 24.1 0.13 0.13 0.13 75 1009.3
20260507213216 10 270 4.8 8.0 0.10 0.10 0.10 76 1009.0
20260507212216 10 293 8.0 17.7 0.10 0.10 0.10 74 1009.0
20260507211216 10 315 4.8 8.0 0.10 0.10 0.10 71 1008.8
20260507210216 11 293 6.4 12.9 0.05 0.05 0.05 66 1008.8
20260507205216 13 270 24.1 35.4 0.00 0.00 0.00 51 1008.9
20260507204216 15 0 27.4 32.2 0.00 0.00 0.00 48 1008.2
20260507203216 15 0 14.5 20.9 0.00 0.00 0.00 50 1008.3
20260507202216 15 0 16.1 22.5 0.00 0.00 0.00 45 1008.3
20260507201216 16 248 19.3 25.7 0.00 0.00 0.00 43 1008.6
20260507200216 16 0 22.5 30.6 0.00 0.00 0.00 45 1008.8
20260507195216 16 0 20.9 29.0 0.00 0.00 0.00 48 1009.0
20260507194216 16 248 25.7 37.0 0.00 0.00 0.00 45 1009.2
20260507193216 16 0 22.5 30.6 0.00 0.00 0.00 45 1009.4
20260507192216 16 0 22.5 33.8 0.00 0.00 0.00 47 1009.7
20260507191237 15 0 24.1 35.4 0.00 0.00 0.00 47 1010.0
20260507190216 15 203 27.4 35.4 0.00 0.00 0.00 46 1010.1
20260507185216 15 0 20.9 32.2 0.00 0.00 0.00 43 1010.0
20260507184216 15 0 25.7 41.8 0.00 0.00 0.00 43 1010.1
20260507183216 15 225 29.0 41.8 0.00 0.00 0.00 40 1010.2
20260507182216 15 0 17.7 27.4 0.00 0.00 0.00 41 1010.1
20260507181215 14 0 12.9 19.3 0.00 0.00 0.00 41 1010.5
20260507180216 15 0 17.7 32.2 0.00 0.00 0.00 37 1010.6
20260507175216 15 0 19.3 25.7 0.00 0.00 0.00 39 1010.8
20260507174216 15 0 17.7 27.4 0.00 0.00 0.00 38 1011.1
20260507173216 15 0 16.1 22.5 0.00 0.00 0.00 38 1011.3
20260507172216 15 0 24.1 37.0 0.00 0.00 0.00 39 1011.4
20260507171216 14 0 12.9 20.9 0.00 0.00 0.00 38 1011.7
20260507170216 15 0 17.7 35.4 0.00 0.00 0.00 39 1012.0
20260507165216 14 180 16.1 25.7 0.00 0.00 0.00 39 1012.0
20260507164238 13 0 14.5 22.5 0.00 0.00 0.00 37 1012.1
20260507163238 13 225 12.9 27.4 0.00 0.00 0.00 37 1012.3
20260507162219 13 225 8.0 12.9 0.00 0.00 0.00 40 1012.5
20260507161238 13 203 11.3 14.5 0.00 0.00 0.00 40 1012.7
20260507160217 12 225 6.4 9.7 0.00 0.00 0.00 41 1012.8
20260507155238 12 203 9.7 14.5 0.00 0.00 0.00 41 1012.9
20260507154238 12 158 8.0 16.1 0.00 0.00 0.00 39 1013.2
20260507153217 12 180 3.2 8.0 0.00 0.00 0.00 40 1013.1
20260507152218 12 0 11.3 16.1 0.00 0.00 0.00 39 1013.4
20260507151218 11 248 4.8 6.4 0.00 0.00 0.00 43 1013.5
20260507150218 11 293 6.4 9.7 0.00 0.00 0.00 42 1013.8
20260507145217 11 225 6.4 9.7 0.00 0.00 0.00 44 1013.8
20260507144217 10 0 14.5 17.7 0.00 0.00 0.00 45 1014.0
20260507143258 10 248 9.7 14.5 0.00 0.00 0.00 47 1014.2
20260507142217 10 225 11.3 17.7 0.00 0.00 0.00 48 1014.3
20260507141217 9 203 6.4 8.0 0.00 0.00 0.00 52 1014.3
20260507140217 8 203 8.0 14.5 0.00 0.00 0.00 54 1014.4
20260507135218 7 203 6.4 9.7 0.00 0.00 0.00 57 1014.3
20260507134217 7 225 4.8 6.4 0.00 0.00 0.00 60 1014.2
20260507133218 6 225 6.4 9.7 0.00 0.00 0.00 64 1014.5
20260507132218 6 203 3.2 3.2 0.00 0.00 0.00 66 1014.7
20260507131217 6 225 3.2 4.8 0.00 0.00 0.00 68 1014.7
20260507130217 5 203 4.8 6.4 0.00 0.00 0.00 68 1014.7
20260507125217 5 248 4.8 9.7 0.00 0.00 0.00 68 1014.6
20260507124217 5 225 3.2 4.8 0.00 0.00 0.00 71 1014.6
20260507123217 4 203 4.8 6.4 0.00 0.00 0.00 76 1014.5
20260507122218 3 225 3.2 4.8 0.00 0.00 0.00 79 1014.3
20260507121217 2 270 1.6 4.8 0.00 0.00 0.00 81 1014.2
20260507120217 2 248 3.2 4.8 0.00 0.00 0.00 82 1014.2
20260507115237 1 248 1.6 3.2 0.00 0.00 0.00 82 1014.1
20260507114217 0 0.0 0.0 0.00 0.00 0.00 82 1014.1
20260507113217 0 0.0 1.6 0.00 0.00 0.00 82 1014.0
20260507112217 0 225 1.6 3.2 0.00 0.00 0.00 81 1013.8
20260507111217 0 225 1.6 3.2 0.00 0.00 0.00 81 1013.9
20260507110217 0 225 1.6 1.6 0.00 0.00 0.00 81 1013.8
20260507105258 0 225 1.6 3.2 0.00 0.00 0.00 80 1013.8